Location: Newark
(43.4850°N, 107.4500°W)
Time: 08:38:42
(UTC+00:00)

Envisat - Visible Passes

Search period start: 19 November 2019 00:00
Search period end: 29 November 2019 00:00
Orbit: 764 x 766 km, 98.1° (Epoch: 18 November)

Date Brightness Start Highest point End Pass type
(mag) Time Alt. Az. Time Alt. Az. Time Alt. Az.
19 Nov 3.2 00:35:37 10° SE 00:40:27 46° ENE 00:45:18 10° N visible
19 Nov 5.4 02:15:47 10° SW 02:19:41 22° W 02:23:37 10° NW visible
19 Nov 6.1 12:44:44 10° NE 12:47:31 15° E 12:50:17 10° ESE visible
20 Nov 4.0 01:37:47 10° S 01:42:40 47° W 01:47:35 10° NNW visible
21 Nov 2.9 01:00:47 10° SSE 01:05:51 80° ENE 01:10:58 10° N visible
21 Nov 6.1 02:43:21 10° WSW 02:45:29 13° W 02:47:37 10° WNW visible
21 Nov 5.5 13:09:05 10° NE 13:13:17 25° E 13:17:26 10° SSE visible
22 Nov 3.5 00:24:36 10° SE 00:29:14 37° ENE 00:33:54 10° N visible
22 Nov 5.0 02:04:01 10° SSW 02:08:19 27° W 02:12:39 10° NW visible
22 Nov 6.3 12:34:32 10° ENE 12:36:06 11° E 12:37:39 10° ESE visible
23 Nov 3.5 01:26:22 10° S 01:31:22 60° W 01:36:24 10° NNW visible
23 Nov 4.5 13:34:06 10° NNE 13:38:56 43° E 13:43:45 10° S visible
24 Nov 2.9 00:49:36 10° SSE 00:54:37 64° ENE 00:59:39 10° N visible
24 Nov 5.8 02:30:59 10° SW 02:34:04 16° W 02:37:10 10° NW visible
24 Nov 5.9 12:58:11 10° NE 13:01:55 20° E 13:05:36 10° SE visible
25 Nov 3.7 00:13:40 10° SE 00:18:03 30° ENE 00:22:27 10° N visible
25 Nov 4.6 01:52:22 10° SSW 01:56:58 34° W 02:01:36 10° NNW visible
26 Nov 3.1 01:15:01 10° S 01:20:04 76° WSW 01:25:11 10° NNW visible
26 Nov 4.9 13:22:58 10° NNE 13:27:36 34° E 13:32:12 10° SSE visible
27 Nov 3.1 00:38:29 10° SE 00:43:22 51° ENE 00:48:18 10° N visible
27 Nov 5.5 02:18:58 10° SW 02:22:41 20° W 02:26:24 10° NW visible
27 Nov 6.0 12:47:25 10° NE 12:50:31 16° E 12:53:35 10° SE visible
28 Nov 4.0 00:02:48 10° ESE 00:06:52 25° ENE 00:10:56 10° NNE visible
28 Nov 4.2 01:40:49 10° S 01:45:38 43° W 01:50:29 10° NNW visible
